Virtual Norwegian is not affiliated with Norwegian Air Shuttle in any way.
If you are looking for the real "Norwegian", or you wish to book Norwegian flights, please visit Norwegian.com


We use cookies to ensure you get the best experience on our website.   ACCEPT
Happy Easter :)

ENVA - TRD - Trondheim (Vaernes)

General Info Alternate Airport
ICAO: ENVA Elevation: 56 ft ICAO: ENAL
IATA: TRD Country: Norway IATA: AES
City: Trondheim Charts: Log in to view charts City: Alesund
Name: Vaernes Hub: Yes Name Vigra
General Info
ICAO: ENVA
IATA: TRD
City: Trondheim
Name: Vaernes
Elevation: 56 ft
Country: Norway
Charts: Log in to view charts
Hub: Yes
 
Alternate Airport
ICAO: ENAL
IATA: AES
City: Alesund
Name: Vigra

Weather
210750Z 14004KT 9999 FEW010 SCT020 BKN035 08/06 Q1022 NOSIG RMK WIND 670FT 17004KT
Weather
210750Z 14004KT 9999 FEW010 SCT020 BKN035 08/06 Q1022 NOSIG RMK WIND 670FT 17004KT

Runway Info
09
Length ILS/LOC Course
2999 m 110.30 088
27
Length ILS/LOC Course
2999 m 109.90 268

NOTAMs
NOTAMs currently unavailable.
NOTAMs
NOTAMs currently unavailable

Route map
Airport
Airport (hub)